Davenport, IA

1:38 AM CST on February 23, 2018 (GMT -0600)
Davenport Municipal

Weather History for KDVN - January, 2014

Change the Weather History Date:

Friday, January 3, 2014

  Actual Average Record
Temperature  
Mean Temperature 5 °F 21 °F  
Max Temperature 22 °F 30 °F 60 °F (1998)
Min Temperature -12 °F 13 °F -12 °F (2014)
Degree Days  
Heating Degree Days 60 44  
Month to date heating degree days 177 131  
Since 1 July heating degree days 3009 2711  
Cooling Degree Days 0 0  
Month to date cooling degree days 0 0  
Year to date cooling degree days 0 0  
Moisture  
Dew Point 2 °F    
Average Humidity 74    
Maximum Humidity 87    
Minimum Humidity 61    
Precipitation  
Precipitation 0.00 in 0.02 in 0.60 in (1974)
Month to date precipitation 0.16 0.09  
Year to date precipitation 0.16 0.09  
Snow  
Snow 0.00 in - - ()
Month to date snowfall 3.1  
Since 1 July snowfall 20.3  
Snow Depth 4.00 in    
Sea Level Pressure  
Sea Level Pressure 30.20 in    
Wind  
Wind Speed 16 mph (South)    
Max Wind Speed 36 mph    
Max Gust Speed 41 mph    
Visibility 8 miles    
Events      
T = Trace of Precipitation, MM = Missing Value Source: NWS Daily Summary

Daily Weather History Graph

Daily Weather History Graph

Search for Another Location

Airport or City:

Trip Planner

Search our weather history database for the weather conditions in past years. The results will help you decide how hot, cold, wet, or windy it might be!

Date:

Astronomy

Jan. 03, 2014 Rise Set
Actual Time 7:29 AM CST 4:44 PM CST
Civil Twilight 6:58 AM CST 5:16 PM CST
Nautical Twilight 6:23 AM CST 5:50 PM CST
Astronomical Twilight 5:49 AM CST 6:24 PM CST
Moon 8:53 AM CST (1/3) 7:56 PM CST (1/3)
Length of Visible Light 10h 17m
Length of Day
9h 15m
Waxing Crescent, 8% of the Moon is Illuminated
Jan 3
Waxing Crescent
Jan 7
First Quarter
Jan 15
Full
Jan 23
Last Quarter
Jan 30
New

Hourly Weather History & Observations

Time (CST) Temp. Windchill Dew Point Humidity Pressure Visibility Wind Dir Wind Speed Gust Speed Precip Events Conditions
12:52 AM -9.0 °F -20.4 °F -13.0 °F 83% 30.48 in 10.0 mi West 4.6 mph - N/A   Clear
1:52 AM -8.0 °F -19.2 °F -11.9 °F 83% 30.49 in 10.0 mi WNW 4.6 mph - N/A   Clear
2:52 AM -9.0 °F - -13.0 °F 83% 30.49 in 9.0 mi Calm Calm - N/A   Clear
3:52 AM -7.1 °F - -11.9 °F 79% 30.49 in 9.0 mi Calm Calm - N/A   Clear
4:52 AM -8.0 °F -16.9 °F -13.0 °F 79% 30.48 in 8.0 mi South 3.5 mph - N/A   Clear
5:52 AM -9.9 °F -21.5 °F -13.0 °F 86% 30.45 in 9.0 mi South 4.6 mph - N/A   Clear
6:52 AM -4.0 °F -19.0 °F -9.0 °F 79% 30.44 in 8.0 mi South 8.1 mph - N/A   Mostly Cloudy
7:52 AM 1.0 °F -14.0 °F -2.9 °F 83% 30.42 in 9.0 mi South 9.2 mph - N/A   Clear
8:52 AM 3.0 °F -14.8 °F -0.9 °F 84% 30.41 in 10.0 mi South 13.8 mph - N/A   Clear
9:52 AM 7.0 °F -12.1 °F 1.9 °F 80% 30.38 in 9.0 mi South 18.4 mph - N/A   Clear
10:52 AM 10.0 °F -8.6 °F 3.0 °F 73% 30.35 in 8.0 mi South 19.6 mph - N/A   Mostly Cloudy
11:52 AM 12.9 °F -5.7 °F 5.0 °F 71% 30.27 in 7.0 mi South 21.9 mph 28.8 mph N/A   Overcast
12:52 PM 14.0 °F -3.9 °F 5.0 °F 67% 30.20 in 8.0 mi South 20.7 mph - N/A   Overcast
1:52 PM 16.0 °F -0.9 °F 6.1 °F 65% 30.16 in 9.0 mi South 19.6 mph 25.3 mph N/A   Partly Cloudy
2:52 PM 17.1 °F 1.0 °F 7.0 °F 65% 30.11 in 8.0 mi South 18.4 mph 31.1 mph N/A   Clear
3:52 PM 18.0 °F 0.9 °F 9.0 °F 68% 30.05 in 4.0 mi South 21.9 mph 34.5 mph N/A   Haze
4:52 PM 19.0 °F 2.7 °F 9.0 °F 65% 30.00 in 6.0 mi South 20.7 mph 34.5 mph N/A   Haze
5:52 PM 19.0 °F 1.0 °F 9.0 °F 65% 29.97 in 7.0 mi South 26.5 mph 32.2 mph N/A   Clear
6:52 PM 18.0 °F 0.2 °F 10.0 °F 71% 29.93 in 5.0 mi South 24.2 mph 36.8 mph N/A   Haze
7:52 PM 19.9 °F 2.5 °F 10.9 °F 68% 29.91 in 8.0 mi South 25.3 mph 32.2 mph N/A   Clear
8:52 PM 21.0 °F 5.4 °F 12.0 °F 68% 29.88 in 9.0 mi South 20.7 mph 31.1 mph N/A   Clear
9:52 PM 21.0 °F 4.6 °F 12.9 °F 71% 29.86 in 6.0 mi South 23.0 mph 34.5 mph N/A   Haze
10:52 PM 21.9 °F 4.8 °F 14.0 °F 72% 29.84 in 6.0 mi South 26.5 mph 34.5 mph N/A   Haze
11:52 PM 21.9 °F 5.5 °F 14.0 °F 72% 29.81 in 7.0 mi South 24.2 mph 35.7 mph N/A   Clear